Location: *
(51.4660°N, 0.3360°W)
Time: 05:40:35
(UTC+00:00)

Cosmos 1461 - Pass Details

Date: 19 September 2019
Orbit: 525 x 643 km, 65.0° (Epoch: 20 October)

Event Time Altitude Azimuth Distance (km) Brightness Sun altitude
Rises 19:52:38 0° 240° (WSW) 2,675 6.8 -16.7°
Reaches altitude 10° 19:54:55 10° 247° (WSW) 1,778 6.0 -17.0°
Maximum altitude 19:58:42 43° 319° (NW) 756 4.0 -17.5°
Drops below altitude 10° 20:02:30 10° 32° (NNE) 1,777 5.4 -18.1°
Sets 20:04:47 0° 40° (NE) 2,674 6.2 -18.4°
